Showing default

LUNA-1, 66777

Orbit data source: Space-Track

LUNA-1, 66777 is a payload satellite owned by Aselsan (TR) in SSO that was launched on Fri, 28 Nov 2025 UTC via an FALCON 9 launch vehicle from the Air Force Western Test Range (AFWTR). Payload-class satellites include a variety of spacecraft equipped with specific instruments for various scientific and technological missions. These include communications satellites like Starlink; space stations such as the ISS; scientific satellites like the Hubble; Earth observation satellites from companies like Planet Labs, Umbra, and HawkEye 360; GPS; miniature CubeSats for education and research; and military/defense satellites.

Loading next visibility...
Identifier
66777, 2025-276DR
Orbit
SSO
Country
Flag of TRTR / TURK
Related business
Manufacturer
Aselsan
Mission
Operational Commercial Communications
Bus & Motor
CUBESAT 6U?, Unknown motor
Mass
~12 kg wet, ~12 kg dry
Launch date (UTC)
2025-11-28 (6 months ago)
Launch vehicle
FALCON 9
Launch site
Air Force Western Test Range (AFWTR)
Object type
Payload
Rocket body
Debris
Shape & HBR
Box, 0.1 m
Radar Cross Section
0.080 m², Medium (>0.1 m² and < 1m²)

Expand to show TLE details & history
Last TLE update: 1 week ago

TLE from 1 week ago
0 LUNA-1
1 66777U 25276DR  26154.51927222  .00010983  00000-0  47693-3 0  9996
2 66777  97.4256 229.0146 0000593 230.2033 129.9151 15.22484374 28381
Epoch: 2026-06-03T12:27Z
TLE epoch observation values (Epoch: 2026-06-03T12:27:45.119Z)
Latitude
-0.00007°
Longitude
150.09989°
Altitude
501.705 km
Speed
7.613 km/s
True Right ascension
15h 16m 03s
True Declination
0° 00' 00"
Sunlit
Object was in full shadow at epoch
Visualization orbit readout
Latitude
Unknown
Longitude
Unknown
Altitude
Unknown
Speed
Unknown
Apparent Right ascension
Unknown
Apparent Declination
Unknown
Sunlit
N/A
Visualization observer readout
Local Sidereal Time
19:31:52
Azimuth
Unknown
Elevation
Unknown
Doppler factor
Unknown
Orbital elements
Apogee altitude
495.721 km
Perigee altitude
494.906 km
Semi-major axis
6,873.45 km
Eccentricity
0.00006
Inclination
97.4256°
RAAN
229.0146°
Arg. of periapsis
230.2033°
True anomaly
129.92031°
Mean anomaly
129.9151°
Eccentric anomaly
129.91771°
Mean motion
3.80874 °/min
Orbital period
94.52 mins
BSTAR
0.00047693
Loading maneuver chart data...
Computing Atmospheric mass density...
Loading historical data...
Loading historical data...
Loading historical data...
Loading historical data...
Loading historical data...
Loading historical data...
Loading historical data...

Documentation

Showing up to 5 results
|